| time (UTC) | temp C | wind direction | speed KPH | gust KPH | rain 1hr cm | rain 24hr cm | rain mn cm | humidity % | barometer mb |
| 20260509150734 | 17 | 261 | 4.8 | 16.1 | 0.00 | 0.00 | 0.00 | 73 | 1005.3 |
| 20260509150232 | 17 | 246 | 9.7 | 17.7 | 0.00 | 0.00 | 0.00 | 74 | 1005.2 |
| 20260509145728 | 16 | 241 | 11.3 | 20.9 | 0.00 | 0.00 | 0.00 | 74 | 1005.2 |
| 20260509145223 | 16 | 214 | 12.9 | 30.6 | 0.00 | 0.00 | 0.00 | 75 | 1004.9 |
| 20260509144719 | 16 | 222 | 20.9 | 20.9 | 0.00 | 0.00 | 0.00 | 77 | 1005.0 |
| 20260509144216 | 16 | 257 | 9.7 | 20.9 | 0.00 | 0.00 | 0.00 | 78 | 1004.9 |
| 20260509143714 | 15 | 253 | 14.5 | 17.7 | 0.00 | 0.00 | 0.00 | 79 | 1004.9 |
| 20260509143211 | 15 | 210 | 6.4 | 27.4 | 0.00 | 0.00 | 0.00 | 80 | 1005.1 |
| 20260509142706 | 15 | 240 | 11.3 | 29.0 | 0.00 | 0.00 | 0.00 | 79 | 1004.9 |
| 20260509142203 | 15 | 232 | 8.0 | 16.1 | 0.00 | 0.00 | 0.00 | 80 | 1005.2 |
| 20260509141659 | 15 | 241 | 9.7 | 19.3 | 0.00 | 0.00 | 0.00 | 80 | 1005.2 |
| 20260509141156 | 15 | 238 | 16.1 | 24.1 | 0.00 | 0.00 | 0.00 | 81 | 1005.3 |
| 20260509140652 | 15 | 247 | 8.0 | 16.1 | 0.00 | 0.00 | 0.00 | 80 | 1005.1 |
| 20260509140151 | 15 | 232 | 8.0 | 24.1 | 0.00 | 0.00 | 0.00 | 81 | 1005.0 |
| 20260509135648 | 15 | 240 | 11.3 | 25.7 | 0.00 | 0.00 | 0.00 | 82 | 1004.8 |
| 20260509135146 | 14 | 227 | 8.0 | 17.7 | 0.00 | 0.00 | 0.00 | 83 | 1004.9 |
| 20260509134642 | 14 | 212 | 1.6 | 17.7 | 0.00 | 0.00 | 0.00 | 83 | 1004.8 |
| 20260509134139 | 14 | 224 | 8.0 | 12.9 | 0.00 | 0.00 | 0.00 | 82 | 1004.9 |
| 20260509133636 | 14 | 252 | 6.4 | 27.4 | 0.00 | 0.00 | 0.00 | 83 | 1004.9 |
| 20260509133134 | 14 | 241 | 8.0 | 16.1 | 0.00 | 0.00 | 0.00 | 83 | 1005.2 |
| 20260509132632 | 13 | 214 | 9.7 | 25.7 | 0.00 | 0.00 | 0.00 | 84 | 1005.1 |
| 20260509132130 | 13 | 201 | 12.9 | 19.3 | 0.00 | 0.00 | 0.00 | 84 | 1005.1 |
| 20260509131626 | 13 | 258 | 11.3 | 38.6 | 0.00 | 0.00 | 0.00 | 85 | 1005.0 |
| 20260509131123 | 13 | 228 | 4.8 | 16.1 | 0.00 | 0.00 | 0.00 | 85 | 1004.7 |
| 20260509130619 | 13 | 233 | 4.8 | 19.3 | 0.00 | 0.00 | 0.00 | 87 | 1005.0 |
| 20260509130115 | 13 | 241 | 3.2 | 12.9 | 0.00 | 0.00 | 0.00 | 88 | 1004.7 |
| 20260509125612 | 12 | 242 | 6.4 | 22.5 | 0.00 | 0.00 | 0.00 | 90 | 1005.0 |
| 20260509125109 | 12 | 204 | 14.5 | 14.5 | 0.00 | 0.00 | 0.00 | 91 | 1005.0 |
| 20260509124605 | 12 | 214 | 6.4 | 16.1 | 0.00 | 0.00 | 0.00 | 92 | 1004.9 |
| 20260509124102 | 12 | 194 | 11.3 | 19.3 | 0.00 | 0.00 | 0.00 | 94 | 1005.0 |
| 20260509123600 | 11 | 252 | 11.3 | 20.9 | 0.00 | 0.00 | 0.00 | 95 | 1005.0 |
| 20260509123056 | 11 | 220 | 3.2 | 11.3 | 0.00 | 0.00 | 0.00 | 96 | 1004.8 |
| 20260509122552 | 11 | 217 | 4.8 | 14.5 | 0.00 | 0.00 | 0.00 | 97 | 1004.8 |
| 20260509122050 | 10 | 210 | 11.3 | 22.5 | 0.00 | 0.00 | 0.00 | 97 | 1005.1 |
| 20260509121546 | 10 | 169 | 4.8 | 16.1 | 0.00 | 0.00 | 0.00 | 98 | 1004.8 |
| 20260509121048 | 11 | 182 | 11.3 | 14.5 | 0.00 | 0.00 | 0.00 | 98 | 1004.8 |
| 20260509120542 | 10 | 207 | 1.6 | 12.9 | 0.00 | 0.00 | 0.00 | 99 | 1004.8 |
| 20260509120040 | 10 | 194 | 8.0 | 14.5 | 0.00 | 0.00 | 0.00 | 99 | 1004.7 |
| 20260509115536 | 10 | 204 | 14.5 | 19.3 | 0.00 | 0.00 | 0.00 | 99 | 1005.0 |
| 20260509115034 | 10 | 225 | 4.8 | 4.8 | 0.00 | 0.00 | 0.00 | 99 | 1005.0 |
| 20260509114532 | 10 | 275 | 4.8 | 11.3 | 0.00 | 0.00 | 0.00 | 99 | 1005.0 |
| 20260509114031 | 10 | 331 | 3.2 | 11.3 | 0.00 | 0.00 | 0.00 | 99 | 1004.5 |
| 20260509113529 | 10 | 220 | 9.7 | 14.5 | 0.00 | 0.00 | 0.00 | 99 | 1004.1 |
| 20260509113027 | 10 | 202 | 8.0 | 14.5 | 0.00 | 0.00 | 0.00 | 99 | 1004.2 |
| 20260509112523 | 10 | 204 | 3.2 | 14.5 | 0.00 | 0.00 | 0.00 | 99 | 1004.0 |
| 20260509112019 | 10 | 207 | 8.0 | 17.7 | 0.00 | 0.00 | 0.00 | 99 | 1004.0 |
| 20260509111517 | 10 | 223 | 8.0 | 19.3 | 0.00 | 0.00 | 0.00 | 99 | 1004.1 |
| 20260509111014 | 10 | 214 | 8.0 | 20.9 | 0.00 | 0.00 | 0.00 | 99 | 1004.3 |
| 20260509110510 | 10 | 209 | 8.0 | 14.5 | 0.00 | 0.00 | 0.00 | 99 | 1004.3 |
| 20260509110008 | 10 | 212 | 6.4 | 20.9 | 0.00 | 0.00 | 0.00 | 99 | 1004.1 |
| 20260509105506 | 10 | 197 | 14.5 | 24.1 | 0.00 | 0.00 | 0.00 | 99 | 1004.3 |
| 20260509105004 | 10 | 207 | 16.1 | 17.7 | 0.00 | 0.00 | 0.00 | 99 | 1004.2 |
| 20260509104500 | 10 | 173 | 4.8 | 17.7 | 0.00 | 0.00 | 0.00 | 99 | 1004.3 |
| 20260509103957 | 10 | 137 | 3.2 | 20.9 | 0.00 | 0.00 | 0.00 | 99 | 1004.2 |
| 20260509103455 | 10 | 173 | 8.0 | 12.9 | 0.00 | 0.00 | 0.00 | 99 | 1004.4 |
| 20260509102953 | 10 | 194 | 8.0 | 20.9 | 0.00 | 0.00 | 0.00 | 99 | 1004.2 |
| 20260509102450 | 10 | 203 | 9.7 | 16.1 | 0.00 | 0.00 | 0.00 | 99 | 1004.6 |
| 20260509101946 | 10 | 189 | 4.8 | 16.1 | 0.00 | 0.00 | 0.00 | 98 | 1004.5 |
| 20260509101442 | 10 | 192 | 4.8 | 14.5 | 0.00 | 0.00 | 0.00 | 98 | 1004.7 |
| 20260509100940 | 10 | 213 | 6.4 | 16.1 | 0.00 | 0.00 | 0.00 | 98 | 1004.5 |
| 20260509100437 | 10 | 201 | 14.5 | 17.7 | 0.00 | 0.00 | 0.00 | 98 | 1004.6 |
| 20260509095933 | 10 | 202 | 3.2 | 20.9 | 0.00 | 0.00 | 0.00 | 98 | 1004.8 |
| 20260509095431 | 10 | 201 | 9.7 | 19.3 | 0.00 | 0.00 | 0.00 | 98 | 1004.6 |
| 20260509094928 | 10 | 193 | 14.5 | 19.3 | 0.00 | 0.00 | 0.00 | 98 | 1004.8 |
| 20260509094424 | 10 | 197 | 3.2 | 14.5 | 0.00 | 0.00 | 0.00 | 98 | 1004.7 |
| 20260509093922 | 10 | 203 | 4.8 | 12.9 | 0.00 | 0.00 | 0.00 | 98 | 1004.8 |
| 20260509093419 | 10 | 202 | 6.4 | 11.3 | 0.00 | 0.00 | 0.00 | 98 | 1004.8 |
| 20260509092917 | 10 | 181 | 3.2 | 16.1 | 0.00 | 0.00 | 0.00 | 98 | 1004.6 |
| 20260509092415 | 10 | 214 | 8.0 | 16.1 | 0.00 | 0.00 | 0.00 | 98 | 1005.0 |
| 20260509091913 | 10 | 192 | 3.2 | 9.7 | 0.00 | 0.00 | 0.00 | 98 | 1004.9 |
| 20260509091409 | 10 | 211 | 3.2 | 11.3 | 0.00 | 0.00 | 0.00 | 98 | 1004.9 |
| 20260509090907 | 10 | 212 | 11.3 | 14.5 | 0.00 | 0.00 | 0.00 | 98 | 1005.0 |
| 20260509090404 | 10 | 195 | 6.4 | 11.3 | 0.00 | 0.00 | 0.00 | 97 | 1005.3 |
| 20260509085901 | 10 | 222 | 4.8 | 11.3 | 0.00 | 0.00 | 0.00 | 97 | 1005.0 |
| 20260509085358 | 10 | 212 | 8.0 | 12.9 | 0.00 | 0.00 | 0.00 | 97 | 1005.0 |
| 20260509084854 | 10 | 216 | 3.2 | 14.5 | 0.00 | 0.00 | 0.00 | 97 | 1005.2 |
| 20260509084351 | 10 | 211 | 8.0 | 12.9 | 0.00 | 0.00 | 0.00 | 97 | 1005.0 |
| 20260509083849 | 10 | 254 | 1.6 | 11.3 | 0.00 | 0.00 | 0.00 | 97 | 1005.1 |
| 20260509083346 | 10 | 211 | 4.8 | 11.3 | 0.00 | 0.00 | 0.00 | 97 | 1005.2 |
| 20260509082842 | 10 | 208 | 4.8 | 12.9 | 0.00 | 0.00 | 0.00 | 97 | 1005.0 |
| 20260509082339 | 10 | 203 | 4.8 | 11.3 | 0.00 | 0.00 | 0.00 | 96 | 1005.2 |
| 20260509081837 | 10 | 199 | 8.0 | 11.3 | 0.00 | 0.00 | 0.00 | 96 | 1004.9 |
| 20260509081333 | 10 | 208 | 4.8 | 9.7 | 0.00 | 0.00 | 0.00 | 96 | 1005.0 |
| 20260509080832 | 10 | 197 | 4.8 | 16.1 | 0.00 | 0.00 | 0.00 | 96 | 1004.9 |
| 20260509080329 | 10 | 214 | 6.4 | 12.9 | 0.00 | 0.00 | 0.00 | 96 | 1005.1 |
| 20260509075827 | 10 | 216 | 11.3 | 16.1 | 0.00 | 0.00 | 0.00 | 96 | 1005.0 |
| 20260509075324 | 10 | 211 | 9.7 | 14.5 | 0.00 | 0.00 | 0.00 | 95 | 1004.9 |
| 20260509074821 | 10 | 220 | 3.2 | 14.5 | 0.00 | 0.00 | 0.00 | 95 | 1005.2 |
| 20260509074319 | 10 | 226 | 4.8 | 11.3 | 0.00 | 0.00 | 0.00 | 95 | 1005.0 |
| 20260509073815 | 10 | 200 | 9.7 | 14.5 | 0.00 | 0.00 | 0.00 | 95 | 1005.2 |
| 20260509073311 | 10 | 210 | 8.0 | 14.5 | 0.00 | 0.00 | 0.00 | 95 | 1005.2 |
| 20260509072808 | 10 | 215 | 6.4 | 11.3 | 0.00 | 0.00 | 0.00 | 94 | 1005.3 |
| 20260509072306 | 10 | 206 | 6.4 | 6.4 | 0.00 | 0.00 | 0.00 | 94 | 1005.6 |
| 20260509071801 | 11 | 220 | 8.0 | 9.7 | 0.00 | 0.00 | 0.00 | 94 | 1005.6 |
| 20260509071258 | 11 | 210 | 3.2 | 14.5 | 0.00 | 0.00 | 0.00 | 94 | 1005.5 |
| 20260509070755 | 11 | 205 | 8.0 | 14.5 | 0.00 | 0.00 | 0.00 | 94 | 1005.4 |
| 20260509070252 | 11 | 239 | 3.2 | 9.7 | 0.00 | 0.00 | 0.00 | 93 | 1005.7 |
| 20260509065748 | 11 | 210 | 11.3 | 19.3 | 0.00 | 0.00 | 0.00 | 93 | 1005.6 |
| 20260509065245 | 11 | 210 | 8.0 | 14.5 | 0.00 | 0.00 | 0.00 | 93 | 1005.5 |
| 20260509064741 | 11 | 229 | 4.8 | 17.7 | 0.00 | 0.00 | 0.00 | 92 | 1005.6 |
| 20260509064239 | 11 | 201 | 8.0 | 16.1 | 0.00 | 0.00 | 0.00 | 93 | 1005.7 |
| 20260509063736 | 11 | 221 | 3.2 | 12.9 | 0.00 | 0.00 | 0.00 | 92 | 1005.8 |
| 20260509063232 | 11 | 253 | 3.2 | 14.5 | 0.00 | 0.00 | 0.00 | 92 | 1005.6 |
| 20260509062729 | 11 | 218 | 6.4 | 17.7 | 0.00 | 0.00 | 0.00 | 92 | 1005.7 |
| 20260509062226 | 11 | 224 | 4.8 | 9.7 | 0.00 | 0.00 | 0.00 | 92 | 1005.7 |
| 20260509061723 | 11 | 211 | 8.0 | 19.3 | 0.00 | 0.00 | 0.00 | 92 | 1005.6 |
| 20260509061221 | 11 | 269 | 0.0 | 8.0 | 0.00 | 0.00 | 0.00 | 92 | 1005.8 |
| 20260509060719 | 11 | 220 | 8.0 | 9.7 | 0.00 | 0.00 | 0.00 | 92 | 1006.1 |
| 20260509060214 | 11 | 192 | 4.8 | 16.1 | 0.00 | 0.00 | 0.00 | 91 | 1006.2 |
| 20260509055710 | 11 | 186 | 4.8 | 8.0 | 0.00 | 0.00 | 0.00 | 91 | 1006.1 |
| 20260509055206 | 11 | 209 | 3.2 | 11.3 | 0.00 | 0.00 | 0.00 | 91 | 1006.5 |
| 20260509054703 | 11 | 247 | 4.8 | 9.7 | 0.00 | 0.00 | 0.00 | 91 | 1006.3 |
| 20260509054201 | 11 | 241 | 3.2 | 11.3 | 0.00 | 0.00 | 0.00 | 91 | 1006.5 |
| 20260509053659 | 11 | 201 | 9.7 | 9.7 | 0.00 | 0.00 | 0.00 | 91 | 1006.3 |
| 20260509053155 | 12 | 199 | 8.0 | 12.9 | 0.00 | 0.00 | 0.00 | 90 | 1006.2 |
| 20260509052653 | 12 | 243 | 4.8 | 24.1 | 0.00 | 0.00 | 0.00 | 90 | 1006.2 |
| 20260509052151 | 12 | 216 | 4.8 | 16.1 | 0.00 | 0.00 | 0.00 | 90 | 1006.3 |
| 20260509051648 | 12 | 206 | 16.1 | 17.7 | 0.00 | 0.00 | 0.00 | 90 | 1006.5 |
| 20260509051145 | 12 | 214 | 4.8 | 6.4 | 0.00 | 0.00 | 0.00 | 90 | 1006.3 |
| 20260509050642 | 12 | 207 | 4.8 | 16.1 | 0.00 | 0.00 | 0.00 | 90 | 1006.1 |
| 20260509050139 | 12 | 209 | 6.4 | 16.1 | 0.00 | 0.00 | 0.00 | 89 | 1006.0 |
| 20260509045636 | 12 | 212 | 6.4 | 19.3 | 0.00 | 0.00 | 0.00 | 89 | 1006.2 |
| 20260509045133 | 12 | 204 | 6.4 | 12.9 | 0.00 | 0.00 | 0.00 | 89 | 1006.2 |
| 20260509044630 | 12 | 213 | 6.4 | 14.5 | 0.00 | 0.00 | 0.00 | 89 | 1006.5 |
| 20260509044128 | 12 | 208 | 8.0 | 14.5 | 0.00 | 0.00 | 0.00 | 88 | 1006.4 |
| 20260509043624 | 12 | 238 | 3.2 | 14.5 | 0.00 | 0.00 | 0.00 | 88 | 1006.5 |
| 20260509043120 | 12 | 213 | 6.4 | 9.7 | 0.00 | 0.00 | 0.00 | 88 | 1006.5 |
| 20260509042616 | 12 | 203 | 11.3 | 19.3 | 0.00 | 0.00 | 0.00 | 87 | 1006.7 |
| 20260509042112 | 12 | 201 | 4.8 | 12.9 | 0.00 | 0.00 | 0.00 | 87 | 1006.5 |
| 20260509041609 | 12 | 225 | 1.6 | 11.3 | 0.00 | 0.00 | 0.00 | 86 | 1006.4 |
| 20260509041107 | 12 | 203 | 4.8 | 14.5 | 0.00 | 0.00 | 0.00 | 86 | 1006.6 |
| 20260509040605 | 13 | 225 | 6.4 | 16.1 | 0.00 | 0.00 | 0.00 | 85 | 1006.4 |
| 20260509035558 | 13 | 199 | 6.4 | 14.5 | 0.00 | 0.00 | 0.00 | 84 | 1006.6 |
| 20260509035055 | 13 | 217 | 12.9 | 20.9 | 0.00 | 0.00 | 0.00 | 83 | 1006.6 |
| 20260509034553 | 13 | 166 | 12.9 | 16.1 | 0.00 | 0.00 | 0.00 | 83 | 1006.6 |
| 20260509034050 | 13 | 194 | 4.8 | 24.1 | 0.00 | 0.00 | 0.00 | 82 | 1006.7 |
| 20260509033547 | 13 | 187 | 11.3 | 17.7 | 0.00 | 0.00 | 0.00 | 81 | 1006.7 |
| 20260509033044 | 13 | 221 | 8.0 | 12.9 | 0.00 | 0.00 | 0.00 | 80 | 1006.6 |
| 20260509032541 | 13 | 244 | 8.0 | 22.5 | 0.00 | 0.00 | 0.00 | 79 | 1007.0 |
| 20260509032038 | 13 | 223 | 9.7 | 19.3 | 0.00 | 0.00 | 0.00 | 79 | 1006.6 |
| 20260509031536 | 13 | 218 | 8.0 | 17.7 | 0.00 | 0.00 | 0.00 | 78 | 1006.5 |
| 20260509031033 | 13 | 209 | 3.2 | 20.9 | 0.00 | 0.00 | 0.00 | 77 | 1006.6 |
| 20260509030531 | 14 | 210 | 9.7 | 20.9 | 0.00 | 0.00 | 0.00 | 77 | 1006.8 |
| 20260509030027 | 14 | 204 | 4.8 | 17.7 | 0.00 | 0.00 | 0.00 | 76 | 1006.7 |
| 20260509025523 | 14 | 178 | 3.2 | 20.9 | 0.00 | 0.00 | 0.00 | 76 | 1006.8 |
| 20260509025019 | 14 | 220 | 3.2 | 14.5 | 0.00 | 0.00 | 0.00 | 76 | 1006.7 |
| 20260509024515 | 14 | 225 | 3.2 | 16.1 | 0.00 | 0.00 | 0.00 | 76 | 1006.6 |
| 20260509024012 | 14 | 197 | 4.8 | 11.3 | 0.00 | 0.00 | 0.00 | 76 | 1006.8 |
| 20260509023509 | 14 | 246 | 0.0 | 14.5 | 0.00 | 0.00 | 0.00 | 76 | 1006.7 |
| 20260509023006 | 14 | 199 | 4.8 | 14.5 | 0.00 | 0.00 | 0.00 | 76 | 1007.0 |
| 20260509022502 | 14 | 210 | 4.8 | 11.3 | 0.00 | 0.00 | 0.00 | 76 | 1006.8 |
| 20260509022000 | 15 | 188 | 1.6 | 11.3 | 0.00 | 0.00 | 0.00 | 75 | 1006.9 |
| 20260509021457 | 15 | 212 | 4.8 | 12.9 | 0.00 | 0.00 | 0.00 | 75 | 1007.0 |
| 20260509020954 | 15 | 215 | 11.3 | 16.1 | 0.00 | 0.00 | 0.00 | 75 | 1007.0 |
| 20260509020453 | 15 | 215 | 12.9 | 16.1 | 0.00 | 0.00 | 0.00 | 74 | 1006.7 |
| 20260509015949 | 15 | 213 | 8.0 | 11.3 | 0.00 | 0.00 | 0.00 | 74 | 1006.5 |
| 20260509015448 | 15 | 208 | 4.8 | 12.9 | 0.00 | 0.00 | 0.00 | 73 | 1006.6 |
| 20260509014944 | 15 | 183 | 9.7 | 14.5 | 0.00 | 0.00 | 0.00 | 72 | 1006.3 |
| 20260509014441 | 15 | 195 | 9.7 | 16.1 | 0.00 | 0.00 | 0.00 | 70 | 1006.3 |
| 20260509013937 | 15 | 173 | 6.4 | 17.7 | 0.00 | 0.00 | 0.00 | 69 | 1006.3 |
| 20260509013434 | 15 | 220 | 11.3 | 19.3 | 0.00 | 0.00 | 0.00 | 66 | 1006.6 |
| 20260509012930 | 16 | 177 | 4.8 | 11.3 | 0.00 | 0.00 | 0.00 | 63 | 1006.2 |
| 20260509012427 | 16 | 207 | 4.8 | 9.7 | 0.00 | 0.00 | 0.00 | 61 | 1006.5 |
| 20260509011924 | 16 | 146 | 3.2 | 6.4 | 0.00 | 0.00 | 0.00 | 60 | 1006.2 |
| 20260509011421 | 16 | 214 | 4.8 | 6.4 | 0.00 | 0.00 | 0.00 | 60 | 1006.2 |
| 20260509010919 | 16 | 169 | 3.2 | 6.4 | 0.00 | 0.00 | 0.00 | 59 | 1006.1 |
| 20260509010416 | 16 | 215 | 3.2 | 8.0 | 0.00 | 0.00 | 0.00 | 59 | 1006.4 |
| 20260509005913 | 16 | 274 | 3.2 | 14.5 | 0.00 | 0.00 | 0.00 | 59 | 1006.4 |
| 20260509005411 | 16 | 200 | 6.4 | 11.3 | 0.00 | 0.00 | 0.00 | 58 | 1006.3 |
| 20260509004911 | 17 | 239 | 4.8 | 11.3 | 0.00 | 0.00 | 0.00 | 58 | 1006.2 |
| 20260509004408 | 17 | 226 | 6.4 | 14.5 | 0.00 | 0.00 | 0.00 | 57 | 1006.4 |
| 20260509003906 | 17 | 233 | 3.2 | 9.7 | 0.00 | 0.00 | 0.00 | 57 | 1006.3 |
| 20260509003403 | 17 | 212 | 4.8 | 11.3 | 0.00 | 0.00 | 0.00 | 56 | 1006.2 |
| 20260509002900 | 17 | 235 | 4.8 | 11.3 | 0.00 | 0.00 | 0.00 | 56 | 1006.3 |
| 20260509002358 | 17 | 192 | 4.8 | 8.0 | 0.00 | 0.00 | 0.00 | 54 | 1006.3 |
| 20260509001855 | 17 | 211 | 4.8 | 12.9 | 0.00 | 0.00 | 0.00 | 54 | 1006.4 |
| 20260509001351 | 17 | 196 | 6.4 | 8.0 | 0.00 | 0.00 | 0.00 | 54 | 1006.3 |
| 20260509000848 | 17 | 240 | 3.2 | 12.9 | 0.00 | 0.00 | 0.00 | 54 | 1006.5 |
| 20260509000348 | 17 | 207 | 3.2 | 8.0 | 0.00 | 0.00 | 0.00 | 54 | 1006.4 |
| 20260508235842 | 17 | 211 | 4.8 | 9.7 | 0.00 | 0.00 | 0.00 | 53 | 1006.4 |
| 20260508235339 | 17 | 234 | 0.0 | 14.5 | 0.00 | 0.00 | 0.00 | 54 | 1006.4 |
| 20260508234836 | 18 | 208 | 6.4 | 9.7 | 0.00 | 0.00 | 0.00 | 53 | 1006.4 |
| 20260508234333 | 18 | 228 | 4.8 | 8.0 | 0.00 | 0.00 | 0.00 | 52 | 1006.5 |
| 20260508233831 | 18 | 235 | 4.8 | 12.9 | 0.00 | 0.00 | 0.00 | 51 | 1006.5 |
| 20260508233330 | 18 | 212 | 1.6 | 12.9 | 0.00 | 0.00 | 0.00 | 52 | 1006.5 |
| 20260508232826 | 18 | 214 | 4.8 | 12.9 | 0.00 | 0.00 | 0.00 | 52 | 1006.5 |
| 20260508232323 | 18 | 252 | 9.7 | 17.7 | 0.00 | 0.00 | 0.00 | 52 | 1006.5 |
| 20260508231822 | 18 | 207 | 4.8 | 14.5 | 0.00 | 0.00 | 0.00 | 52 | 1006.4 |
| 20260508231317 | 19 | 213 | 4.8 | 8.0 | 0.00 | 0.00 | 0.00 | 51 | 1006.4 |
| 20260508230814 | 18 | 233 | 4.8 | 12.9 | 0.00 | 0.00 | 0.00 | 52 | 1006.5 |
| 20260508230311 | 18 | 222 | 3.2 | 8.0 | 0.00 | 0.00 | 0.00 | 52 | 1006.5 |
| 20260508225809 | 19 | 221 | 4.8 | 11.3 | 0.00 | 0.00 | 0.00 | 50 | 1006.6 |
| 20260508225306 | 19 | 245 | 4.8 | 14.5 | 0.00 | 0.00 | 0.00 | 49 | 1006.4 |
| 20260508224803 | 18 | 243 | 6.4 | 16.1 | 0.00 | 0.00 | 0.00 | 48 | 1006.5 |
| 20260508224300 | 18 | 205 | 4.8 | 11.3 | 0.00 | 0.00 | 0.00 | 47 | 1006.6 |
| 20260508223758 | 19 | 203 | 6.4 | 11.3 | 0.00 | 0.00 | 0.00 | 46 | 1006.4 |
| 20260508223255 | 19 | 206 | 9.7 | 14.5 | 0.00 | 0.00 | 0.00 | 46 | 1006.7 |
| 20260508222752 | 20 | 235 | 4.8 | 9.7 | 0.00 | 0.00 | 0.00 | 47 | 1006.6 |
| 20260508222249 | 19 | 237 | 3.2 | 14.5 | 0.00 | 0.00 | 0.00 | 47 | 1006.6 |
| 20260508221746 | 18 | 216 | 4.8 | 9.7 | 0.00 | 0.00 | 0.00 | 50 | 1006.6 |
| 20260508221242 | 18 | 198 | 14.5 | 17.7 | 0.00 | 0.00 | 0.00 | 49 | 1006.7 |
| 20260508220738 | 18 | 230 | 9.7 | 19.3 | 0.00 | 0.00 | 0.00 | 47 | 1006.7 |
| 20260508220234 | 19 | 268 | 4.8 | 17.7 | 0.00 | 0.00 | 0.00 | 47 | 1006.8 |
| 20260508215731 | 18 | 242 | 4.8 | 11.3 | 0.00 | 0.00 | 0.00 | 50 | 1006.7 |
| 20260508215227 | 18 | 230 | 8.0 | 20.9 | 0.00 | 0.00 | 0.00 | 49 | 1006.8 |
| 20260508214725 | 20 | 207 | 16.1 | 20.9 | 0.00 | 0.00 | 0.00 | 48 | 1006.7 |
| 20260508214222 | 18 | 208 | 9.7 | 11.3 | 0.00 | 0.00 | 0.00 | 49 | 1006.8 |
| 20260508213718 | 18 | 195 | 12.9 | 19.3 | 0.00 | 0.00 | 0.00 | 52 | 1006.8 |
| 20260508213215 | 18 | 219 | 6.4 | 14.5 | 0.00 | 0.00 | 0.00 | 52 | 1006.5 |
| 20260508212712 | 18 | 224 | 11.3 | 14.5 | 0.00 | 0.00 | 0.00 | 50 | 1006.5 |
| 20260508212208 | 20 | 165 | 1.6 | 8.0 | 0.00 | 0.00 | 0.00 | 50 | 1006.6 |
| 20260508211704 | 18 | 216 | 3.2 | 17.7 | 0.00 | 0.00 | 0.00 | 54 | 1006.9 |
| 20260508211200 | 18 | 125 | 3.2 | 14.5 | 0.00 | 0.00 | 0.00 | 54 | 1006.9 |
| 20260508210657 | 18 | 60 | 3.2 | 12.9 | 0.00 | 0.00 | 0.00 | 56 | 1006.8 |
| 20260508210154 | 18 | 150 | 8.0 | 14.5 | 0.00 | 0.00 | 0.00 | 55 | 1006.8 |
| 20260508205651 | 18 | 211 | 8.0 | 12.9 | 0.00 | 0.00 | 0.00 | 56 | 1007.0 |
| 20260508205147 | 18 | 196 | 4.8 | 12.9 | 0.00 | 0.00 | 0.00 | 56 | 1007.0 |
| 20260508204644 | 18 | 186 | 3.2 | 14.5 | 0.00 | 0.00 | 0.00 | 55 | 1007.1 |
| 20260508204140 | 18 | 179 | 6.4 | 16.1 | 0.00 | 0.00 | 0.00 | 55 | 1007.0 |
| 20260508203636 | 18 | 181 | 6.4 | 19.3 | 0.00 | 0.00 | 0.00 | 56 | 1007.0 |
| 20260508203132 | 20 | 139 | 8.0 | 16.1 | 0.00 | 0.00 | 0.00 | 51 | 1007.1 |
| 20260508202629 | 19 | 135 | 3.2 | 14.5 | 0.00 | 0.00 | 0.00 | 51 | 1007.2 |
| 20260508202126 | 19 | 212 | 14.5 | 20.9 | 0.00 | 0.00 | 0.00 | 50 | 1007.3 |
| 20260508201623 | 19 | 186 | 4.8 | 9.7 | 0.00 | 0.00 | 0.00 | 51 | 1007.4 |
| 20260508201119 | 18 | 161 | 1.6 | 14.5 | 0.00 | 0.00 | 0.00 | 52 | 1007.3 |
| 20260508200616 | 19 | 213 | 6.4 | 12.9 | 0.00 | 0.00 | 0.00 | 51 | 1007.6 |
| 20260508200112 | 19 | 221 | 8.0 | 9.7 | 0.00 | 0.00 | 0.00 | 49 | 1007.8 |
| 20260508195609 | 19 | 199 | 4.8 | 11.3 | 0.00 | 0.00 | 0.00 | 49 | 1007.7 |
| 20260508195105 | 18 | 205 | 11.3 | 11.3 | 0.00 | 0.00 | 0.00 | 51 | 1007.7 |
| 20260508194602 | 20 | 196 | 8.0 | 9.7 | 0.00 | 0.00 | 0.00 | 45 | 1007.8 |
| 20260508194059 | 20 | 240 | 3.2 | 8.0 | 0.00 | 0.00 | 0.00 | 44 | 1008.2 |
| 20260508193556 | 19 | 206 | 8.0 | 14.5 | 0.00 | 0.00 | 0.00 | 46 | 1008.0 |
| 20260508193053 | 18 | 187 | 3.2 | 11.3 | 0.00 | 0.00 | 0.00 | 50 | 1007.9 |
| 20260508192549 | 18 | 165 | 4.8 | 16.1 | 0.00 | 0.00 | 0.00 | 54 | 1008.1 |
| 20260508192046 | 17 | 123 | 8.0 | 14.5 | 0.00 | 0.00 | 0.00 | 54 | 1008.2 |
| 20260508191543 | 17 | 114 | 9.7 | 12.9 | 0.00 | 0.00 | 0.00 | 54 | 1008.4 |
| 20260508191039 | 18 | 211 | 4.8 | 12.9 | 0.00 | 0.00 | 0.00 | 53 | 1008.2 |
| 20260508190537 | 18 | 125 | 4.8 | 16.1 | 0.00 | 0.00 | 0.00 | 50 | 1008.4 |
| 20260508190033 | 18 | 139 | 14.5 | 17.7 | 0.00 | 0.00 | 0.00 | 52 | 1008.4 |
| 20260508185531 | 18 | 177 | 6.4 | 9.7 | 0.00 | 0.00 | 0.00 | 50 | 1008.4 |
| 20260508185028 | 18 | 110 | 6.4 | 17.7 | 0.00 | 0.00 | 0.00 | 48 | 1008.4 |
| 20260508184526 | 18 | 194 | 4.8 | 11.3 | 0.00 | 0.00 | 0.00 | 54 | 1008.4 |
| 20260508184022 | 18 | 133 | 16.1 | 17.7 | 0.00 | 0.00 | 0.00 | 56 | 1008.7 |
| 20260508183519 | 20 | 54 | 1.6 | 4.8 | 0.00 | 0.00 | 0.00 | 50 | 1008.7 |
| 20260508183015 | 18 | 177 | 4.8 | 11.3 | 0.00 | 0.00 | 0.00 | 51 | 1008.8 |
| 20260508182511 | 18 | 186 | 8.0 | 16.1 | 0.00 | 0.00 | 0.00 | 52 | 1008.8 |
| 20260508182008 | 18 | 240 | 3.2 | 14.5 | 0.00 | 0.00 | 0.00 | 59 | 1008.8 |
| 20260508181503 | 17 | 116 | 8.0 | 11.3 | 0.00 | 0.00 | 0.00 | 60 | 1009.1 |
| 20260508181001 | 17 | 144 | 4.8 | 16.1 | 0.00 | 0.00 | 0.00 | 62 | 1008.9 |
| 20260508180458 | 17 | 119 | 8.0 | 19.3 | 0.00 | 0.00 | 0.00 | 62 | 1009.0 |
| 20260508175954 | 17 | 139 | 4.8 | 16.1 | 0.00 | 0.00 | 0.00 | 60 | 1009.1 |
| 20260508175450 | 18 | 195 | 8.0 | 11.3 | 0.00 | 0.00 | 0.00 | 60 | 1009.0 |
| 20260508174948 | 17 | 185 | 4.8 | 12.9 | 0.00 | 0.00 | 0.00 | 60 | 1009.3 |
| 20260508174445 | 17 | 205 | 9.7 | 11.3 | 0.00 | 0.00 | 0.00 | 59 | 1009.3 |
| 20260508173942 | 17 | 91 | 1.6 | 11.3 | 0.00 | 0.00 | 0.00 | 59 | 1009.1 |
| 20260508173439 | 17 | 191 | 3.2 | 12.9 | 0.00 | 0.00 | 0.00 | 61 | 1009.3 |
| 20260508172935 | 18 | 165 | 6.4 | 9.7 | 0.00 | 0.00 | 0.00 | 60 | 1009.3 |
| 20260508172432 | 18 | 152 | 9.7 | 11.3 | 0.00 | 0.00 | 0.00 | 61 | 1009.6 |
| 20260508171928 | 17 | 194 | 12.9 | 17.7 | 0.00 | 0.00 | 0.00 | 63 | 1009.9 |
| 20260508171425 | 17 | 200 | 6.4 | 14.5 | 0.00 | 0.00 | 0.00 | 64 | 1009.8 |
| 20260508170922 | 17 | 194 | 6.4 | 11.3 | 0.00 | 0.00 | 0.00 | 67 | 1009.7 |
| 20260508170419 | 17 | 205 | 9.7 | 16.1 | 0.00 | 0.00 | 0.00 | 66 | 1010.1 |
| 20260508165916 | 17 | 231 | 12.9 | 12.9 | 0.00 | 0.00 | 0.00 | 67 | 1009.9 |
| 20260508165414 | 17 | 191 | 9.7 | 16.1 | 0.00 | 0.00 | 0.00 | 65 | 1010.1 |
| 20260508164909 | 17 | 156 | 6.4 | 14.5 | 0.00 | 0.00 | 0.00 | 67 | 1009.9 |
| 20260508164407 | 17 | 203 | 3.2 | 14.5 | 0.00 | 0.00 | 0.00 | 66 | 1010.1 |
| 20260508163904 | 16 | 180 | 1.6 | 12.9 | 0.00 | 0.00 | 0.00 | 71 | 1010.2 |
| 20260508163402 | 16 | 163 | 3.2 | 14.5 | 0.00 | 0.00 | 0.00 | 69 | 1010.4 |
| 20260508162857 | 16 | 219 | 8.0 | 17.7 | 0.00 | 0.00 | 0.00 | 71 | 1010.4 |
| 20260508162354 | 16 | 163 | 8.0 | 9.7 | 0.00 | 0.00 | 0.00 | 70 | 1010.5 |
| 20260508161851 | 16 | 252 | 0.0 | 6.4 | 0.00 | 0.00 | 0.00 | 69 | 1010.7 |
| 20260508161349 | 15 | 229 | 3.2 | 11.3 | 0.00 | 0.00 | 0.00 | 72 | 1010.5 |
| 20260508160846 | 15 | 162 | 6.4 | 11.3 | 0.00 | 0.00 | 0.00 | 70 | 1010.5 |
| 20260508160344 | 16 | 221 | 4.8 | 6.4 | 0.00 | 0.00 | 0.00 | 72 | 1010.5 |
| 20260508155840 | 15 | 80 | 3.2 | 9.7 | 0.00 | 0.00 | 0.00 | 70 | 1010.6 |
| 20260508155338 | 16 | 166 | 8.0 | 12.9 | 0.00 | 0.00 | 0.00 | 70 | 1010.6 |
| 20260508154834 | 16 | 105 | 6.4 | 16.1 | 0.00 | 0.00 | 0.00 | 71 | 1010.7 |
| 20260508154332 | 15 | 149 | 9.7 | 14.5 | 0.00 | 0.00 | 0.00 | 72 | 1010.7 |
| 20260508153828 | 15 | 196 | 3.2 | 4.8 | 0.00 | 0.00 | 0.00 | 72 | 1010.9 |
| 20260508153326 | 15 | 321 | 1.6 | 6.4 | 0.00 | 0.00 | 0.00 | 73 | 1010.6 |
| 20260508152821 | 15 | 204 | 8.0 | 11.3 | 0.00 | 0.00 | 0.00 | 72 | 1010.7 |
| 20260508152318 | 15 | 177 | 6.4 | 11.3 | 0.00 | 0.00 | 0.00 | 74 | 1010.9 |
| 20260508151814 | 16 | 190 | 4.8 | 6.4 | 0.00 | 0.00 | 0.00 | 70 | 1010.8 |
| 20260508151312 | 15 | 203 | 8.0 | 12.9 | 0.00 | 0.00 | 0.00 | 72 | 1010.8 |
| 20260508150808 | 15 | 142 | 8.0 | 11.3 | 0.00 | 0.00 | 0.00 | 74 | 1011.0 |